SKYNET 5D

Last updated on Jan. 29, 2020, 4:37 a.m. UTC

1 39034U 12075A   20028.73382677  .00000098  00000-0  00000-0 0  9996
2 39034   0.0787  10.4329 0003896 284.5713 149.3410  1.00273597 25797
UTC
Height (km)
Latitude
Longitude
Inclination
Orbital Period
UTC large
Height (km)
Speed (km/s)
/
Latitude / Longitude
Inclination (degrees)
Orbital Period (minutes)
Azimuth
Elevation
Range (km)
Doppler Factor
iOS Compass Heading
iOS Angle

Next 30 passes for location: Hong Kong

Rise time Rise Azimuth (degrees) Set time Set Azimuth (degrees) Duration Max altitude (degrees)

No matching passes for this satellites